Torna al catalogo

SL-14 R/B

AttivoPO
NORAD 16720·ROCKET BODY·🇷🇺 Russia

Lanciato May 15, 1986 da Plesetsk Cosmodrome

Loading…

Prossimi Passaggi (prossime 24 ore)

TLE

AggiornatoSource: Space-Track

Epoca: Sep 14, 2026, 15:38 UTC

1 16720U 86034B   26257.65161646  .00000292  00000-0  30622-4 0  9994
2 16720  82.5560 330.1599 0020673 109.2596  51.0917 14.85792143158926

Traccia SL-14 R/B in tempo reale con AllMySat

Download on the App Store